Location: Veytaux
(46.4185°N, 6.9320°E)
Time: 07:51:08
(UTC+00:00)

Cosmos 2297 - Visible Passes

Search period start: 06 October 2022 00:00
Search period end: 16 October 2022 00:00
Orbit: 838 x 856 km, 71.0° (Epoch: 05 October)

Date Brightness Start Highest point End Pass type
(mag) Time Alt. Az. Time Alt. Az. Time Alt. Az.
06 Oct 6.0 20:58:58 10° NNW 21:00:28 17° N 21:00:28 17° N visible
07 Oct 5.9 20:45:31 10° N 20:47:13 18° N 20:47:13 18° N visible
08 Oct 5.8 20:32:05 10° N 20:33:59 19° N 20:33:59 19° N visible
09 Oct 5.7 20:18:40 10° N 20:20:47 20° N 20:20:47 20° N visible
09 Oct 6.6 22:02:34 10° NW 22:02:42 11° NW 22:02:42 11° NW visible
10 Oct 5.5 20:05:14 10° N 20:07:36 21° N 20:07:36 21° N visible
10 Oct 6.5 21:49:07 10° NW 21:49:31 12° NW 21:49:31 12° NW visible
11 Oct 5.4 19:51:49 10° N 19:54:26 22° NNE 19:54:26 22° NNE visible
11 Oct 6.4 21:35:40 10° NW 21:36:21 14° NW 21:36:21 14° NW visible
12 Oct 5.3 19:38:23 10° N 19:41:18 23° NNE 19:41:18 23° NNE visible
12 Oct 6.3 21:22:13 10° NW 21:23:13 15° NW 21:23:13 15° NW visible
13 Oct 5.2 19:24:57 10° N 19:28:11 24° NNE 19:28:11 24° NNE visible
13 Oct 6.1 21:08:46 10° NW 21:10:06 18° NW 21:10:06 18° NW visible
14 Oct 5.0 19:11:31 10° N 19:15:05 25° NNE 19:15:05 25° NNE visible
14 Oct 5.9 20:55:19 10° NNW 20:57:02 20° NW 20:57:02 20° NW visible
15 Oct 4.9 18:58:06 10° N 19:02:03 26° NE 19:02:03 26° NE visible
15 Oct 5.7 20:41:52 10° NNW 20:43:59 23° NW 20:43:59 23° NW visible
